Flag for Germany Weather past 2 weeks in Koblenz, Rhineland-Palatinate, Germany

Now
54 °F

Cool.


Feels Like: 50 °F
Forecast: 44 / 56 °F
Wind: 10 mph from Southwest

Location: Buechel

Current Time: Apr 26, 2015 at 12:17:28 PM

Latest Report: Apr 26, 2015 at 11:20 AM


Visibility: N/A

Pressure: 29.77 "Hg

Humidity: 88%

Dew point: 50 °F

Location of KoblenzLocation

Historic Weather in Koblenz — Graph

°F

Koblenz temperature yesterday

Maximum temperature yesterday: 57 °F (at 12:20 AM)
Minimum temperature yesterday: 50 °F (at 8:20 AM)
Average temperature yesterday: 53 °F

Past Weeks' High & Low Weather Summary

 TemperatureHumidityPressure
High72 °F (Apr 15, 4:20 PM)100% (Apr 25, 11:20 AM)30.45 "Hg (Apr 25, 11:20 AM)
Low36 °F (Apr 18, 4:20 AM)23% (Apr 21, 4:20 PM)29.77 "Hg (Apr 26, 5:20 AM)
Average52 °F58%30.15 "Hg
* Reported Apr 11 10:20 AM — Apr 26 10:20 AM, Koblenz, Weather by CustomWeather, © 2015

Note: Actual official high and low records may vary slightly from our data, if they occured in-between our weather recording intervals... More about our weather records

Advertising

Koblenz weather history for previous 24 hours

 ConditionsComfort  
Time TempWeatherWind HumidityBarometerVisibility
10:20 AM
Sun, Apr 26
52 °FCool.10 mph94%29.77 "HgN/A
9:20 AM52 °FCool.9 mph94%29.77 "HgN/A
8:20 AM52 °FCool.8 mph94%29.77 "Hg5 mi
7:20 AM50 °FCool.10 mph100%29.77 "Hg5 mi
6:20 AM50 °FCool.8 mph100%29.77 "Hg4 mi
5:20 AM50 °FCool.9 mph100%29.77 "Hg4 mi
4:20 AM50 °FCool.10 mph100%29.80 "Hg4 mi
3:20 AM50 °FCool.9 mph100%29.80 "Hg2 mi
2:20 AM50 °FCool.8 mph100%29.80 "Hg1 mi
1:20 AM48 °FCool.7 mph100%29.80 "Hg2 mi
12:20 AM48 °FCool.7 mph100%29.83 "Hg4 mi
11:20 PM
Sat, Apr 25
50 °FCool.8 mph94%29.80 "Hg5 mi
10:20 PM52 °FCool.7 mph94%29.83 "Hg5 mi
9:20 PM52 °FCool.7 mph94%29.80 "Hg5 mi
8:20 PM52 °FCool.8 mph94%29.80 "Hg6 mi
7:20 PM54 °FCool.7 mph88%29.80 "Hg6 mi
6:20 PM54 °FCool.8 mph88%29.80 "HgN/A
5:20 PM54 °FCool.8 mph88%29.80 "Hg6 mi
4:20 PM55 °FCool.12 mph77%29.80 "HgN/A
3:20 PM54 °FCool.12 mph88%29.80 "HgN/A
2:20 PM54 °FCool.15 mph88%29.80 "Hg5 mi
1:20 PM54 °FCool.14 mph88%29.80 "Hg6 mi
12:20 PM52 °FCool.13 mph94%29.83 "Hg4 mi
Weather by CustomWeather, © 2015

See weather overviewHow to use our weather pages